FW5955 Weather Reports


Display with metric or nautical units.
time (UTC)temp
F
wind
direction
speed
MPH
gust
MPH
rain 1hr
in
rain 24hr
in
rain mn
in
humidity
%
barometer
mb
20260831193017 75 57 2.0 10.0 0.00 0.09 0.08 53 1014.1
20260831191512 75 346 1.0 8.0 0.00 0.09 0.08 54 1013.9
20260831190013 75 259 1.0 6.0 0.00 0.09 0.08 51 1013.9
20260831184519 75 192 1.0 10.0 0.00 0.09 0.08 53 1013.7
20260831183009 75 6 2.0 8.0 0.00 0.09 0.08 52 1013.7
20260831181516 74 18 2.0 6.0 0.00 0.09 0.08 51 1013.6
20260831180009 74 335 2.0 9.0 0.00 0.09 0.08 51 1013.5
20260831174508 74 44 3.0 7.0 0.00 0.09 0.08 51 1013.6
20260831173006 75 253 1.0 8.0 0.00 0.09 0.08 51 1013.5
20260831171504 74 289 1.0 7.0 0.00 0.09 0.08 54 1013.6
20260831170002 74 53 2.0 7.0 0.00 0.09 0.08 50 1013.4
20260831164501 74 79 3.0 8.0 0.00 0.09 0.08 51 1013.6
20260831163100 74 95 1.0 5.0 0.00 0.09 0.08 52 1013.6
20260831161556 73 277 1.0 9.0 0.00 0.09 0.08 51 1013.5
20260831160055 73 276 2.0 6.0 0.00 0.09 0.08 55 1013.5
20260831154553 72 18 2.0 9.0 0.00 0.09 0.08 55 1013.4
20260831153055 73 296 1.0 8.0 0.00 0.09 0.08 59 1013.3
20260831151558 72 236 2.0 7.0 0.00 0.09 0.08 58 1013.5
20260831150049 71 326 3.0 9.0 0.00 0.09 0.08 56 1013.5
20260831144554 71 41 1.0 6.0 0.00 0.09 0.08 65 1013.6
20260831143044 70 72 1.0 8.0 0.00 0.09 0.08 63 1013.7
20260831141534 70 331 3.0 7.0 0.00 0.09 0.08 64 1013.6
20260831140033 69 289 3.0 7.0 0.00 0.09 0.08 67 1013.5
20260831134528 68 15 1.0 6.0 0.00 0.09 0.08 69 1013.3
20260831133025 67 226 1.0 7.0 0.00 0.09 0.08 73 1013.3
20260831131520 66 353 1.0 8.0 0.00 0.09 0.08 75 1013.2
20260831130021 66 347 2.0 10.0 0.00 0.09 0.08 74 1012.9
20260831124515 65 324 2.0 7.0 0.00 0.09 0.08 76 1012.8
20260831123011 64 82 1.0 8.0 0.00 0.09 0.08 81 1012.8
20260831121510 64 230 0.0 6.0 0.00 0.09 0.08 84 1012.8
20260831120016 64 278 2.0 7.0 0.00 0.09 0.08 86 1012.7
20260831114508 62 308 1.0 6.0 0.00 0.09 0.08 88 1012.7
20260831113007 62 241 1.0 8.0 0.00 0.09 0.08 90 1012.7
20260831111505 61 274 0.0 5.0 0.00 0.09 0.08 91 1012.6
20260831110003 60 262 1.0 5.0 0.00 0.09 0.08 92 1012.6
20260831104504 59 259 0.0 3.0 0.00 0.09 0.08 92 1012.2
20260831103104 58 257 0.0 1.0 0.00 0.09 0.08 93 1012.2
20260831101559 58 262 0.0 2.0 0.00 0.09 0.08 93 1012.0
20260831094557 59 270 1.0 4.0 0.01 0.09 0.08 93 1011.8
20260831093054 59 280 1.0 4.0 0.02 0.09 0.08 93 1011.7
20260831091552 59 247 0.0 4.0 0.02 0.09 0.08 93 1011.4
20260831090048 60 332 1.0 4.0 0.02 0.09 0.08 93 1011.2
20260831084552 60 273 0.0 3.0 0.00 0.07 0.06 93 1011.0
20260831083048 61 257 1.0 4.0 0.00 0.07 0.06 93 1011.0
20260831081600 61 258 1.0 5.0 0.01 0.07 0.06 93 1011.1
20260831080041 61 276 1.0 3.0 0.01 0.07 0.06 93 1010.8
20260831074544 61 290 0.0 5.0 0.02 0.07 0.06 93 1011.0
20260831073106 61 271 0.0 4.0 0.02 0.07 0.06 93 1011.1
20260831071538 61 307 0.0 3.0 0.01 0.06 0.06 93 1011.0
20260831070037 62 274 0.0 4.0 0.01 0.06 0.06 93 1010.9
20260831064540 62 280 1.0 4.0 0.00 0.06 0.05 93 1011.1
20260831063035 62 260 0.0 3.0 0.01 0.06 0.05 93 1010.7
20260831061538 62 252 0.0 3.0 0.01 0.06 0.05 93 1010.4
20260831060031 62 274 0.0 2.0 0.02 0.06 0.05 92 1010.6
20260831054534 63 263 0.0 3.0 0.02 0.06 0.05 92 1010.7
20260831053033 63 259 0.0 3.0 0.01 0.05 0.04 92 1010.6
20260831051528 63 258 1.0 4.0 0.01 0.05 0.04 92 1010.8
20260831050039 63 247 2.0 9.0 0.02 0.04 0.03 92 1010.9
20260831044525 64 162 1.0 8.0 0.03 0.04 0.03 92 1011.0
20260831043027 64 285 2.0 8.0 0.03 0.04 0.03 92 1011.0
20260831041527 64 305 2.0 8.0 0.03 0.04 0.03 92 1010.8
20260831040040 65 255 3.0 11.0 0.02 0.02 0.02 91 1011.0
20260831034529 65 143 1.0 10.0 0.00 0.01 0.00 91 1011.0
20260831033020 65 245 7.0 14.0 0.00 0.01 0.00 91 1010.8
20260831031515 65 259 4.0 13.0 0.00 0.01 0.00 91 1010.7
20260831030024 65 264 8.0 15.0 0.00 0.01 0.00 91 1011.0
20260831024511 65 264 5.0 10.0 0.00 0.01 0.01 92 1011.2
20260831023009 65 252 7.0 13.0 0.00 0.01 0.01 91 1011.4
20260831021507 65 236 7.0 13.0 0.00 0.01 0.01 91 1011.7
20260831020006 65 242 6.0 11.0 0.01 0.01 0.01 91 1012.0
20260831014505 65 284 8.0 13.0 0.01 0.01 0.01 91 1012.1
20260831013003 65 262 6.0 12.0 0.01 0.01 0.01 91 1012.4
20260831011502 65 251 4.0 11.0 0.01 0.01 0.01 91 1012.4
20260831010104 65 250 6.0 12.0 0.00 0.00 0.00 91 1012.4
20260831004502 65 250 4.0 9.0 0.00 0.00 0.00 90 1012.5
20260831003100 66 265 3.0 11.0 0.00 0.00 0.00 89 1012.5
20260831001559 66 278 3.0 8.0 0.00 0.00 0.00 89 1012.5
20260831000103 66 243 6.0 12.0 0.00 0.00 0.00 89 1012.6
20260830234606 66 283 5.0 12.0 0.00 0.00 0.00 89 1012.5
20260830233103 66 255 6.0 14.0 0.00 0.00 0.00 89 1012.7
20260830231555 67 245 8.0 17.0 0.00 0.00 0.00 90 1012.8
20260830230054 67 269 10.0 18.0 0.00 0.00 0.00 89 1013.0
20260830224554 68 270 8.0 17.0 0.00 0.00 0.00 87 1013.0
20260830223053 68 253 7.0 17.0 0.00 0.00 0.00 87 1012.8
20260830221555 68 247 6.0 13.0 0.00 0.00 0.00 86 1012.8
20260830214552 69 245 7.0 15.0 0.00 0.00 0.00 85 1012.9
20260830213052 69 229 7.0 15.0 0.00 0.00 0.00 85 1012.9
20260830211553 69 257 5.0 16.0 0.00 0.00 0.00 86 1012.7
20260830210050 69 226 5.0 11.0 0.00 0.00 0.00 86 1012.9
20260830204557 70 264 7.0 16.0 0.00 0.00 0.00 85 1012.9
20260830203049 70 264 7.0 14.0 0.00 0.00 0.00 85 1013.0
20260830201557 69 259 7.0 15.0 0.00 0.00 0.00 85 1013.0
20260830200048 69 224 10.0 17.0 0.00 0.00 0.00 85 1013.3
20260830194549 70 229 9.0 19.0 0.00 0.00 0.00 85 1013.4